Find Varuna TDM

NORAD ID: 53754 Int'l Des: 2022-107 Owner: BOHB/SFLIN Country: US operational
LEO

リアルタイム位置

3D地球を読み込み中...

Varuna TDMについて

説明を読み込み中...

次回通過

Passes for default location (London). Set your location on the main map for personalized predictions.

高度履歴

Loading altitude history...

軌道要素

1 53754U 22107BG 26107.16896453 .00003481 00000-0 18627-3 0 9997
2 53754 53.2315 118.5025 0398863 55.7100 308.0967 14.68877141193577
Epoch: Apr 17, 2026 • Age: 11 hours

現在のステータス

高度 955.0 km
速度 7.23 km/s
衛星直下点 -37.55°S, 97.39°W
打ち上げ日 Sep 5, 2022
運用期間 3.6 years
タイプ other

技術仕様

分類 Payload
質量 180.00 kg
乾燥質量 140.00 kg
総質量 180.00 kg
長さ 0.80 m
直径 1.40 m
スパン 1.40 m
形状 Hex Cyl + 2 boxes
製造者 SFLIN/ADIG
バスタイプ ESPA/Sherpa-LTE
フェーズステータス In Orbit
所有者/国 BOHB/SFLIN/US

Most Searched